Regional Weather Roundup
Issued by NWS Little Rock, AR

Home | Current Version | Previous Version | Graphics & Text | Print | Product List | Glossary On
Versions: 1 2 3 4 5 6 7 8 9 10 11 12 13 14 15 16 17 18 19 20 21 22 23 24 25 26 27 28 29 30 31 32 33 34 35 36 37 38 39 40 41 42 43 44
000
ASUS44 KLZK 261305
RWRLZK

WEATHER ROUNDUP FOR ARKANSAS
NATIONAL WEATHER SERVICE LITTLE ROCK AR
700 AM CST FRI DEC 26 2014

NOTE: "FAIR" INDICATES FEW OR NO CLOUDS BELOW 12,000 FEET WITH NO
SIGNIFICANT WEATHER AND/OR OBSTRUCTIONS TO VISIBILITY.

ARZ001-003-010-029-261400-
NORTHWEST ARKANSAS

CITY           SKY/WX    TMP DP  RH WIND       PRES   REMARKS
FAYETTEVILLE   PTCLDY    45  40  82 S8        30.01R
FORT SMITH     PTCLDY    40  37  89 NE6       30.03R
HARRISON       PTCLDY    40  38  93 SE9       30.05R
BENTONVILLE    MOCLDY    46  39  76 S12       29.99S
ROGERS         CLOUDY    47  41  80 S13       29.99R
SILOAM SPGS    PTCLDY    46  37  71 S10       30.00R
HIGHFILL       PTCLDY    44  40  85 S10       29.98R
SPRINGDALE     PTCLDY    46  41  81 S9        30.02R
$$

ARZ004-005-016-261400-
NORTH CENTRAL ARKANSAS

CITY           SKY/WX    TMP DP  RH WIND       PRES   REMARKS
BATESVILLE     CLOUDY    45  36  70 S8        30.15R
FLIPPIN        CLEAR     45  36  70 S6        30.07R
MTN HOME       CLEAR     41  38  89 SE6       30.07R
$$

ARZ040-041-261400-
WEST CENTRAL ARKANSAS

CITY           SKY/WX    TMP DP  RH WIND       PRES   REMARKS
MENA           CLOUDY    50  46  87 SE5       30.05R
MOUNT IDA      CLOUDY    48  43  82 SE6       30.05S
$$

ARZ009-017-025-026-028-261400-
NORTHEAST ARKANSAS

CITY           SKY/WX    TMP DP  RH WIND       PRES   REMARKS
CORNING        FAIR      36  36 100 SE6       30.18R
JONESBORO      CLOUDY    41  37  86 S9        30.19R
NEWPORT        CLOUDY    40  37  89 CALM      30.19R
WALNUT RIDGE   CLOUDY    39  36  87 S10       30.16R
BLYTHEVILLE    CLOUDY    41  36  82 S9        30.21R
$$

ARZ022-023-033-042-044-261400-
CENTRAL ARKANSAS

CITY           SKY/WX    TMP DP  RH WIND       PRES   REMARKS
LITTLE ROCK    CLOUDY    41  36  82 NE3       30.15S
N LITTLE ROCK    N/A     44  39  82 S6        30.15S
JACKSONVILLE   CLOUDY    40  37  88 VRB3      30.14S
SEARCY         CLOUDY    42  38  85 SE5       30.18R
HOT SPRINGS    CLOUDY    46  40  79 S6        30.11S
RUSSELLVILLE   CLOUDY    45  41  86 SE3       30.09R
CLINTON        CLOUDY    39  37  93 CALM      30.15R
$$

ARZ036-261400-
EAST ARKANSAS

CITY           SKY/WX    TMP DP  RH WIND       PRES   REMARKS
WEST MEMPHIS   CLOUDY    41  38  89 S7        30.20R
$$

ARZ050-053-066-070-073-261400-
SOUTHWEST ARKANSAS

CITY           SKY/WX    TMP DP  RH WIND       PRES   REMARKS
ARKADELPHIA    PTSUNNY   43  42  96 CALM      30.13S
CAMDEN         CLOUDY    43  36  75 MISG      30.14S
TEXARKANA      CLOUDY    47  44  90 VRB6      30.08R
EL DORADO      CLOUDY    45  39  79 SE7       30.14R
DE QUEEN       CLOUDY    47  44  90 E5        30.05S
$$

ARZ056-057-069-261400-
SOUTHEAST ARKANSAS

CITY           SKY/WX    TMP DP  RH WIND       PRES   REMARKS
PINE BLUFF     MOCLDY    44  36  73 S9        30.16R
STUTTGART      MOCLDY    43  36  75 SE9       30.17R
MONTICELLO     CLOUDY    41  36  82 SE8       30.16F

$$




USA.gov is the U.S. government's official web portal to all federal, state and local government web resources and services.